Overview Statistics Trail Chart Weather Telemetry Raw packets
 

This is the latest recevied weather packets stored in our database for station/object N7ZEF. If no packets are shown the sender has not sent any weather packets the latest 10 day(s).

<< 12 13 14 15 16 17 18 >>
Time Temp. Humidity Pressure Rain* Wind** Luminosity Snow
1777974362 2.78° C 89% 1012.8 hPa 0 mm - - -
1777973761 2.78° C 90% 1012.7 hPa 0 mm - - -
1777973159 3.33° C 91% 1012.6 hPa 0 mm - - -
1777972558 3.33° C 91% 1012.7 hPa 0 mm - - -
1777971957 3.33° C 91% 1012.4 hPa 0 mm - - -
1777971355 3.33° C 92% 1012.4 hPa 0 mm - - -
1777970754 3.89° C 94% 1012.4 hPa 0 mm - - -
1777970152 3.89° C 93% 1012.7 hPa 0 mm - - -
1777969551 3.89° C 94% 1012.8 hPa 0 mm - - -
1777968950 3.89° C 95% 1012.8 hPa 0 mm - - -
1777968348 4.44° C 95% 1012.8 hPa 0 mm - - -
1777967747 4.44° C 95% 1012.7 hPa 0 mm - - -
1777967146 4.44° C 95% 1012.7 hPa 0.51 mm - - -
1777966544 4.44° C 96% 1012.4 hPa 0.51 mm - - -
1777965943 4.44° C 96% 1012.4 hPa 0.51 mm - - -
1777965341 5° C 96% 1012.6 hPa 0.51 mm - - -
1777964740 5° C 96% 1012.4 hPa 0.51 mm - - -
1777964139 5° C 96% 1012.4 hPa 0.51 mm - - -
1777963537 5° C 96% 1012.3 hPa 0 mm - - -
1777962936 5° C 94% 1012.2 hPa 0 mm - - -
1777962334 5.56° C 93% 1012.1 hPa 0 mm - - -
1777961733 6.11° C 90% 1012.6 hPa 0 mm - - -
1777961132 6.11° C 90% 1012.3 hPa 0 mm - - -
1777960530 6.11° C 90% 1012.3 hPa 0 mm - - -
1777959929 6.11° C 89% 1012.3 hPa 0 mm - - -

* Rain latest hour (hover to see other rain measurements)
** Current wind speed in m/s (hover to see current wind gust speed)